Wetbulb
55.79 56.96 56.99 57.08 57.09 57.02 56.88 57.00 57.37 57.89 57.45 55.68 55.90 56.63 56.81 57.21 57.97 58.72 58.56 57.59 57.22 57.79 58.51 58.07 58.05 59.22 57.51 58.90 58.86 58.48 56.48 56.44 53.61 55.15 57.16 58.53 58.63 58.35 58.64 59.43 59.67 58.61 57.41
56.12 56.71 56.90 57.52 57.73 57.26 57.36 57.04 57.75 56.78 56.75 56.17 56.21 55.78 55.92 57.26 57.84 57.50 56.82 56.57 56.71 56.46 56.75 57.25 56.63 56.69 57.86 59.05 56.86 59.32 57.53 58.65 57.26 53.92 57.26 56.89 57.93 59.28 59.42 59.49 59.21 57.77 58.06
56.42 56.50 57.34 58.00 57.82 57.73 57.68 57.58 57.50 56.77 55.32 55.61 56.15 54.93 55.13 56.35 56.25 56.98 57.40 56.34 56.53 56.18 56.89 56.98 56.59 57.11 57.31 57.68 57.64 57.54 57.77 57.86 57.56 55.88 55.54 57.52 58.60 58.65 58.84 61.06 60.59 59.62 58.18
55.71 56.66 56.33 57.88 57.80 57.62 57.73 57.60 57.10 56.81 55.70 55.63 55.95 54.99 55.53 55.33 55.92 55.80 56.50 56.99 57.66 57.08 57.42 58.00 57.21 57.14 57.69 57.95 56.86 56.99 57.16 56.91 56.28 56.70 55.67 55.95 57.30 59.03 56.94 56.99 56.22 59.44 56.11
56.02 56.60 56.79 57.78 57.56 57.49 57.70 57.99 57.94 57.57 56.93 56.75 55.49 55.65 56.78 55.93 53.61 54.95 56.94 57.08 56.83 56.68 57.13 55.78 56.46 54.90 53.69 53.63 56.05 58.60 58.90 57.40 56.11 56.13 54.80 55.81 56.00 55.88 54.52 56.87 54.46 56.35 58.22
55.97 55.81 56.83 57.26 57.52 56.73 57.24 57.87 57.73 57.89 57.61 57.77 57.03 56.40 56.34 54.33 47.44 48.23 51.51 57.90 57.24 57.75 57.25 57.85 58.25 55.34 53.75 55.00 53.28 53.60 53.62 55.90 56.86 57.29 55.95 57.34 57.27 57.39 59.19 56.46 55.71 54.82 52.95
56.55 56.02 55.62 56.45 55.84 56.86 57.04 57.72 57.50 58.25 58.55 57.84 57.47 57.30 56.81 55.40 45.22 46.13 48.35 57.89 58.41 58.86 58.58 58.12 55.68 56.84 57.57 57.78 53.73 52.48 52.38 51.96 52.22 56.12 56.75 56.94 57.41 58.55 58.77 58.35 57.43 57.22 55.42
56.12 55.21 55.17 55.69 55.16 55.22 56.58 56.84 58.39 58.36 59.14 58.22 57.42 57.65 57.47 52.45 43.99 43.94 45.56 56.25 59.75 58.05 57.75 57.36 57.92 58.67 56.71 55.16 55.95 56.38 58.38 57.47 58.50 57.00 58.14 58.65 57.48 56.64 56.65 57.53 58.30 58.70 59.06
55.38 54.37 56.20 56.36 55.45 57.23 54.97 56.15 57.94 57.70 59.20 58.41 57.74 57.08 56.81 57.15 44.30 43.37 46.32 54.84 55.71 57.17 58.65 57.39 57.64 57.41 44.89 46.24 55.39 57.04 57.02 59.56 53.22 52.93 50.22 47.60 46.19 46.38 48.93 54.82 54.09 52.47 51.29
55.25 55.31 56.52 57.04 56.87 56.20 58.00 58.28 57.63 57.41 58.19 57.56 57.34 57.82 51.53 57.00 43.90 43.35 45.76 54.57 56.97 55.88 57.14 58.96 47.68 51.53 45.12 45.34 55.90 56.03 54.37 54.94 55.99 56.17 57.84 54.22 50.78 55.98 50.88 57.64 54.63 50.56 51.13
57.24 56.60 57.29 57.97 57.86 57.48 58.61 59.20 59.07 57.10 56.73 56.42 56.48 58.44 57.92 56.71 54.72 43.17 43.08 52.53 54.35 53.84 56.15 55.42 53.39 44.77 44.43 45.15 44.58 55.05 51.88 50.69 54.08 56.83 57.33 55.88 57.20 58.36 57.04 56.84 56.53 52.83 50.56
57.28 56.76 57.02 57.82 56.83 57.42 59.07 59.11 59.02 58.48 56.90 56.66 55.25 55.20 56.91 59.11 50.79 44.93 43.32 44.04 46.68 53.87 55.69 57.05 51.73 43.37 43.40 44.78 47.17 44.09 43.73 45.16 54.73 54.50 54.02 53.46 53.52 53.94 55.41 55.65 56.87 56.56 56.10
57.63 57.38 57.90 57.74 57.17 57.47 58.17 58.60 56.64 58.76 56.13 54.80 53.14 52.26 52.28 55.54 55.72 44.40 45.88 45.35 43.84 50.49 55.42 48.95 44.69 44.95 43.66 44.74 44.17 46.56 43.55 53.78 53.01 52.41 52.52 52.89 53.47 54.70 56.45 58.14 59.99 59.75 59.24
56.97 57.48 57.68 57.16 56.77 57.81 56.58 54.43 56.44 55.20 56.53 54.87 53.93 52.98 52.52 52.34 53.10 54.93 53.60 52.91 46.02 50.17 51.40 53.97 52.53 51.28 47.91 49.97 50.14 49.79 54.07 54.26 52.19 52.05 52.30 53.16 54.08 54.06 53.23 54.62 52.33 52.74 51.75
57.39 57.42 57.40 57.07 57.68 57.24 58.06 57.23 56.92 59.04 55.16 54.80 54.35 54.23 52.81 52.47 50.82 46.04 46.74 51.11 51.38 47.77 46.88 54.91 55.05 55.82 55.49 54.95 55.19 54.46 54.00 53.67 51.95 52.25 51.58 52.01 51.95 52.35 52.21 53.76 52.44 51.75 50.21
56.84 56.68 57.11 55.42 55.12 55.91 56.41 55.28 48.46 46.54 46.05 44.08 40.91 45.91 53.75 45.07 40.26 40.50 40.64 40.09 39.61 39.17 48.60 51.38 52.78 54.10 53.85 53.76 53.33 52.39 52.37 51.88 51.54 50.56 51.01 51.47 51.17 51.15 51.21 51.18 52.11 50.90 49.61
57.18 57.67 56.91 55.16 56.04 55.53 55.72 55.37 53.91 52.57 43.59 41.62 40.17 39.34 38.27 40.11 39.33 38.74 39.27 39.09 38.00 38.83 48.88 50.60 51.76 53.00 53.43 53.67 52.71 52.02 50.92 51.14 51.56 50.44 50.38 51.24 51.26 51.18 49.86 50.63 50.79 50.54 49.18
57.36 50.14 56.82 56.53 56.34 54.01 55.63 53.31 55.60 54.96 54.59 53.95 43.68 43.49 38.73 37.85 37.41 37.84 38.62 39.56 48.93 45.21 50.23 51.70 51.77 52.42 53.40 52.84 52.26 51.44 50.96 50.51 49.87 49.99 50.38 51.16 51.22 50.53 49.93 49.97 50.25 50.13 48.39
55.54 55.96 56.68 56.38 56.04 54.98 54.38 55.78 55.54 54.69 55.09 55.43 55.60 44.87 43.43 39.17 39.17 38.43 38.51 48.38 51.06 52.63 52.87 52.10 52.09 52.52 52.62 52.47 52.00 51.86 51.34 49.53 48.34 48.55 50.32 50.87 50.95 50.34 49.77 50.10 49.84 41.41 42.96
56.31 49.56 49.79 55.86 54.99 55.19 55.48 54.50 52.66 54.46 55.34 55.09 54.36 54.98 54.50 49.86 51.37 51.55 50.30 51.75 53.09 53.04 53.08 52.50 52.21 52.41 52.16 51.57 51.86 51.01 49.74 48.83 49.12 49.40 49.76 49.98 50.59 50.39 49.44 49.49 49.09 48.39 48.21
55.71 54.87 49.95 54.33 55.29 54.60 53.56 53.46 55.10 54.22 54.49 54.65 55.81 52.88 38.90 54.45 52.82 53.09 53.16 53.54 53.07 53.05 53.06 52.90 51.94 51.99 51.87 51.57 50.89 49.81 49.16 48.48 48.48 48.33 48.75 49.53 50.01 49.24 49.94 49.40 48.92 48.74 48.05
55.24 55.68 54.69 54.00 52.84 53.44 53.30 55.31 52.79 53.94 54.88 54.57 55.58 51.57 34.88 54.30 54.06 53.97 54.34 54.52 54.45 54.18 53.77 53.35 52.11 51.56 51.47 51.63 50.59 49.95 48.78 48.10 48.01 48.05 47.95 48.52 48.94 49.17 49.25 48.58 48.15 47.92 47.28
52.58 52.73 53.98 54.55 54.05 51.65 52.94 55.59 52.99 52.63 55.00 55.28 55.03 54.79 51.57 55.06 54.73 54.90 54.93 55.34 55.71 55.36 55.18 54.37 53.40 51.99 51.89 51.95 51.65 50.07 48.64 48.20 48.03 47.88 46.93 47.19 47.90 48.10 48.37 47.38 47.33 46.93 46.64
51.00 51.96 52.96 52.88 55.06 54.38 53.42 52.45 53.56 50.58 53.80 54.38 55.68 53.79 55.87 54.31 55.82 56.59 56.18 56.36 55.96 55.76 56.21 55.53 54.90 53.80 53.24 52.37 51.84 50.97 50.24 49.51 49.18 47.13 46.93 47.00 46.73 46.40 47.35 47.70 47.14 46.82 46.67
51.54 51.02 52.30 53.21 52.10 54.71 55.78 55.06 52.62 55.59 53.00 54.30 55.70 55.54 55.96 56.45 54.42 53.99 56.98 56.79 56.36 55.95 55.92 55.95 55.82 55.28 54.36 53.47 52.28 50.86 38.30 33.14 42.60 32.77 44.30 44.90 45.57 46.29 46.47 47.31 47.40 47.17 46.59
51.89 50.71 50.19 53.02 53.57 51.93 56.07 53.66 54.73 53.59 54.54 53.32 55.56 55.48 54.79 55.04 56.11 56.14 56.42 56.38 56.10 56.95 56.21 55.84 55.36 55.63 55.16 53.92 52.71 40.13 32.24 32.34 39.06 31.17 41.91 43.64 44.06 44.97 46.38 46.96 47.33 47.01 46.25
MSLP
1023.73 1023.22 1023.34 1023.21 1023.16 1022.84 1022.43 1022.15 1021.65 1021.42 1021.38 1021.18 1020.71 1020.43 1020.16 1020.14 1019.98 1019.74 1019.36 1019.12 1018.99 1018.90 1018.65 1018.31 1017.91 1017.94 1017.86 1017.52 1017.20 1016.93 1016.83 1017.25 1017.22 1017.85 1017.92 1018.76 1019.05 1019.02 1018.96 1019.22 1019.25 1019.16 1019.39
1023.49 1023.15 1023.09 1023.07 1023.06 1022.66 1022.35 1022.15 1021.78 1021.85 1021.64 1021.37 1020.65 1020.81 1020.40 1020.17 1020.11 1019.69 1019.19 1018.96 1018.84 1018.70 1018.56 1018.53 1018.39 1018.02 1017.82 1017.75 1017.53 1017.64 1017.69 1017.64 1017.84 1017.81 1018.11 1018.49 1018.79 1018.99 1018.87 1019.08 1018.93 1018.72 1018.58
1023.12 1023.14 1022.98 1023.02 1022.88 1022.68 1022.34 1022.20 1021.73 1021.74 1021.84 1021.29 1020.62 1020.71 1020.53 1020.13 1019.96 1019.48 1019.47 1019.29 1019.14 1019.07 1018.68 1018.55 1018.80 1018.54 1018.28 1018.18 1018.54 1018.64 1018.17 1018.11 1018.13 1018.11 1018.37 1018.11 1018.44 1018.50 1018.36 1018.71 1018.46 1018.42 1018.29
1023.43 1023.34 1023.29 1022.70 1022.50 1022.64 1022.10 1021.93 1022.00 1021.73 1021.68 1021.47 1021.18 1021.02 1020.64 1020.51 1020.31 1020.60 1020.09 1019.64 1019.34 1019.31 1019.12 1019.18 1019.23 1019.23 1019.18 1018.85 1018.63 1018.47 1018.56 1018.08 1018.14 1018.12 1018.30 1018.33 1018.12 1018.35 1018.13 1018.21 1018.00 1017.69 1017.90
1023.39 1023.09 1023.24 1022.76 1022.31 1022.31 1022.15 1022.13 1021.74 1021.67 1021.48 1021.39 1021.50 1021.25 1020.55 1020.58 1021.43 1021.58 1020.92 1019.73 1019.36 1019.22 1019.05 1019.18 1019.66 1019.85 1019.87 1019.87 1019.52 1019.34 1019.26 1018.93 1018.54 1018.23 1018.12 1017.74 1018.15 1018.14 1018.47 1017.98 1017.87 1017.52 1017.25
1023.10 1023.16 1022.69 1022.45 1022.48 1022.21 1022.02 1021.92 1022.08 1021.75 1021.32 1021.11 1021.04 1020.96 1020.92 1021.41 1022.26 1022.10 1021.82 1020.58 1019.64 1019.78 1019.93 1019.36 1019.45 1019.87 1019.89 1019.83 1019.81 1019.77 1019.74 1019.61 1019.21 1018.96 1018.80 1018.72 1018.65 1018.20 1018.58 1018.10 1017.83 1017.98 1017.29
1023.10 1022.53 1022.09 1022.40 1022.22 1022.19 1021.95 1021.75 1021.57 1021.73 1021.72 1021.51 1021.06 1021.04 1021.34 1022.06 1022.48 1022.35 1022.04 1021.20 1020.35 1019.90 1019.71 1019.72 1019.76 1019.68 1019.77 1019.79 1019.74 1019.61 1019.49 1019.38 1019.40 1019.40 1019.03 1018.81 1018.77 1018.80 1018.64 1018.32 1018.01 1017.91 1017.42
1022.87 1022.23 1022.00 1022.05 1021.73 1021.95 1021.80 1021.78 1021.90 1021.72 1021.50 1021.53 1021.21 1021.27 1021.35 1022.39 1022.46 1022.29 1022.12 1021.46 1020.22 1019.81 1019.64 1019.63 1019.72 1019.74 1020.18 1020.31 1019.95 1019.47 1018.95 1018.98 1018.96 1018.91 1019.02 1018.99 1018.96 1019.04 1018.74 1018.28 1017.92 1017.62 1016.78
1022.71 1022.15 1022.28 1022.33 1022.30 1021.73 1021.55 1021.53 1021.46 1021.47 1021.53 1021.32 1020.97 1021.10 1021.47 1021.91 1022.23 1022.08 1022.07 1021.18 1020.49 1019.86 1019.55 1019.61 1019.77 1019.90 1020.38 1020.38 1020.09 1019.38 1018.77 1018.66 1018.95 1018.92 1019.05 1019.18 1019.26 1019.29 1019.25 1018.46 1017.41 1016.93 1016.33
1022.55 1022.08 1021.98 1022.17 1021.98 1021.97 1021.84 1021.59 1021.45 1021.19 1020.96 1020.73 1020.69 1020.83 1021.34 1021.59 1022.02 1022.04 1021.93 1020.77 1019.71 1019.48 1019.38 1019.53 1020.10 1020.43 1020.55 1020.56 1020.25 1019.57 1019.27 1019.02 1018.81 1018.47 1018.50 1018.74 1018.95 1018.54 1018.93 1018.47 1017.79 1017.39 1016.88
1022.22 1021.95 1022.08 1021.73 1021.63 1021.30 1021.51 1021.58 1021.25 1021.06 1020.80 1020.70 1020.47 1020.51 1020.66 1021.05 1021.87 1021.88 1021.88 1021.60 1020.48 1019.95 1019.46 1019.57 1020.24 1020.59 1020.71 1020.69 1020.49 1020.20 1019.96 1019.73 1019.04 1018.37 1017.73 1017.29 1017.27 1017.38 1017.33 1017.64 1018.00 1018.05 1017.52
1021.58 1021.59 1021.76 1021.44 1021.43 1020.87 1021.15 1021.19 1020.93 1020.68 1020.56 1020.14 1020.11 1020.14 1019.62 1020.24 1021.15 1021.58 1021.67 1021.70 1021.50 1020.67 1019.69 1019.43 1020.15 1020.50 1020.66 1020.61 1020.37 1020.10 1019.73 1019.37 1018.33 1017.49 1017.16 1017.02 1017.02 1016.96 1017.09 1017.46 1017.94 1018.02 1017.82
1021.42 1021.60 1021.29 1021.41 1021.10 1020.95 1020.66 1020.44 1020.12 1020.12 1019.72 1019.29 1018.91 1018.80 1018.83 1019.03 1020.06 1020.84 1021.16 1021.27 1021.32 1020.99 1019.89 1019.91 1020.09 1020.26 1020.19 1020.07 1019.95 1019.65 1019.28 1018.55 1018.11 1017.64 1017.21 1017.05 1017.10 1017.11 1017.58 1017.44 1017.30 1017.22 1017.01
1021.16 1021.41 1020.98 1020.99 1020.94 1020.54 1020.53 1020.30 1019.89 1019.52 1018.98 1018.65 1018.50 1018.55 1018.75 1019.01 1019.37 1019.87 1020.29 1020.58 1020.38 1020.25 1019.91 1019.69 1019.61 1019.45 1019.35 1019.11 1018.97 1018.92 1018.55 1018.16 1018.30 1017.95 1017.49 1017.25 1017.06 1016.76 1016.65 1016.62 1016.99 1016.68 1016.53
1020.83 1021.06 1021.13 1020.60 1020.52 1020.28 1020.08 1019.79 1019.29 1018.92 1018.86 1018.93 1018.75 1018.78 1018.84 1018.92 1019.94 1020.42 1020.85 1020.73 1020.60 1020.37 1020.03 1019.12 1018.54 1017.99 1017.57 1017.62 1017.43 1017.51 1017.61 1017.59 1017.76 1017.59 1017.51 1017.16 1016.81 1016.55 1016.42 1016.43 1016.64 1016.50 1016.32
1020.32 1020.62 1020.51 1020.35 1020.22 1019.65 1019.41 1019.38 1018.95 1019.02 1019.21 1019.11 1019.31 1019.63 1019.40 1019.90 1020.42 1020.71 1020.95 1021.06 1020.90 1020.66 1019.87 1018.75 1017.78 1017.18 1016.93 1016.86 1016.99 1017.11 1017.18 1017.37 1017.45 1017.75 1017.40 1017.10 1016.83 1016.67 1016.50 1016.66 1016.21 1016.25 1016.24
1019.69 1020.02 1020.14 1019.90 1019.47 1019.71 1019.29 1018.97 1018.35 1018.65 1018.68 1019.00 1019.16 1019.34 1019.70 1020.16 1020.54 1020.71 1020.80 1020.76 1020.48 1020.41 1019.60 1018.19 1017.26 1016.76 1016.57 1016.54 1016.76 1016.84 1017.01 1017.24 1017.90 1017.51 1017.23 1017.10 1016.91 1016.73 1016.71 1016.26 1016.01 1016.01 1016.18
1019.42 1019.51 1019.44 1019.11 1018.89 1019.09 1018.74 1018.69 1018.04 1017.49 1017.37 1017.80 1018.37 1018.78 1018.96 1019.38 1019.93 1020.26 1020.44 1020.40 1019.67 1019.35 1018.51 1017.21 1016.51 1016.30 1016.23 1016.44 1016.63 1016.85 1017.08 1017.37 1017.38 1017.37 1017.31 1017.07 1017.03 1016.85 1016.59 1016.20 1015.98 1015.94 1016.41
1019.15 1019.02 1018.78 1018.51 1018.48 1018.23 1018.67 1018.01 1017.42 1016.98 1017.00 1016.42 1016.12 1017.89 1018.56 1018.91 1019.23 1019.48 1019.77 1019.39 1018.19 1017.15 1016.66 1016.20 1016.02 1015.99 1016.12 1016.37 1016.68 1016.97 1017.56 1017.77 1017.68 1017.81 1017.38 1017.06 1016.95 1016.82 1016.46 1016.14 1015.94 1016.32 1016.58
1018.82 1018.61 1018.50 1018.28 1018.01 1017.76 1017.64 1017.28 1017.63 1016.88 1016.49 1015.87 1015.80 1015.45 1016.98 1018.15 1018.09 1017.74 1018.10 1017.78 1016.80 1016.19 1015.85 1015.87 1015.97 1016.01 1016.24 1016.33 1016.59 1017.00 1017.33 1017.21 1017.16 1017.19 1016.96 1017.03 1016.90 1016.72 1016.36 1016.11 1016.12 1016.04 1016.10
1018.70 1018.42 1018.29 1017.84 1017.50 1017.25 1017.08 1016.83 1016.71 1016.39 1016.20 1015.38 1015.37 1015.29 1015.79 1015.73 1015.71 1015.48 1015.22 1015.24 1015.24 1015.33 1015.44 1015.63 1015.75 1015.64 1015.72 1015.88 1016.37 1016.59 1016.67 1016.79 1016.83 1016.87 1016.81 1016.71 1016.54 1016.49 1016.26 1016.21 1016.13 1016.05 1016.00
1019.20 1018.56 1018.01 1017.68 1017.26 1017.03 1016.84 1016.38 1016.11 1016.44 1015.50 1015.19 1015.26 1015.44 1015.54 1015.21 1014.96 1014.71 1014.53 1014.67 1014.80 1014.86 1015.01 1015.34 1015.50 1015.29 1015.18 1015.48 1015.90 1016.25 1016.53 1016.58 1016.67 1016.73 1016.73 1016.58 1016.40 1016.20 1016.16 1016.14 1016.07 1015.98 1016.04
1019.37 1018.84 1018.10 1017.25 1016.83 1016.56 1016.23 1016.19 1015.74 1015.89 1015.42 1014.65 1014.62 1014.43 1015.37 1014.66 1014.35 1013.99 1013.74 1013.87 1014.20 1014.42 1014.51 1014.71 1015.05 1015.06 1014.90 1015.28 1016.04 1016.40 1016.32 1016.42 1016.66 1016.88 1016.95 1016.76 1016.45 1016.33 1016.25 1016.31 1016.18 1016.04 1015.96
1018.51 1017.91 1017.44 1017.07 1016.64 1016.21 1015.76 1015.42 1015.86 1014.95 1014.77 1014.55 1013.99 1014.34 1014.12 1013.96 1013.98 1013.80 1013.57 1013.39 1013.49 1013.63 1013.87 1014.19 1014.48 1014.65 1014.70 1015.24 1015.49 1015.92 1016.13 1016.49 1016.98 1017.07 1017.07 1016.96 1016.82 1016.58 1016.47 1016.26 1016.16 1015.95 1015.92
1017.58 1017.52 1017.05 1016.47 1016.49 1015.88 1015.29 1014.45 1014.71 1014.45 1014.21 1014.59 1013.46 1013.18 1013.09 1013.37 1013.90 1014.09 1013.34 1013.07 1013.06 1013.13 1013.11 1013.32 1013.71 1014.12 1014.50 1014.90 1015.13 1015.23 1016.53 1017.06 1017.40 1017.98 1017.59 1017.27 1017.00 1016.82 1016.67 1016.40 1016.12 1015.93 1015.83
1017.54 1017.63 1017.26 1016.13 1015.52 1015.29 1013.92 1014.17 1014.16 1014.07 1013.71 1013.32 1013.22 1012.96 1012.87 1012.99 1012.71 1012.48 1012.97 1013.23 1013.32 1012.94 1012.38 1012.44 1012.84 1013.35 1013.90 1014.29 1014.74 1015.77 1016.65 1016.97 1017.46 1017.95 1017.77 1017.33 1016.95 1016.57 1016.17 1015.89 1015.71 1015.62 1015.56
Wind_Speed
7 7 6 6 7 7 5 8 8 6 10 8 7 7 6 7 6 6 5 4 6 4 5 6 6 6 5 1 1 2 3 8 4 6 7 5 3 2 1 1 2 6 8
7 7 8 8 7 6 7 6 6 8 7 9 6 8 7 6 6 5 3 5 6 6 5 4 5 5 3 4 5 7 7 5 4 5 5 4 2 3 3 4 6 5 7
9 8 10 9 6 6 6 5 6 7 6 7 5 4 5 4 5 6 12 8 9 7 7 8 10 7 6 6 8 5 4 4 3 2 2 3 2 4 6 4 6 7 3
6 8 8 8 8 4 5 7 7 6 5 6 7 7 6 5 10 11 6 4 5 6 5 5 6 6 6 4 5 3 3 2 2 2 2 3 4 4 3 2 6 4 4
8 5 6 9 6 5 5 7 5 6 5 6 4 5 7 7 7 9 11 7 6 7 7 9 9 7 5 6 7 8 7 7 6 5 4 2 3 1 4 4 2 3 5
5 6 4 3 5 4 4 3 3 5 6 5 6 6 6 8 7 8 9 10 7 7 7 5 6 5 1 2 1 3 3 5 6 5 5 5 5 5 4 6 7 4 5
6 7 2 4 4 5 6 7 7 4 4 5 6 7 8 7 7 7 7 6 2 2 5 5 6 5 3 6 5 8 8 9 7 5 6 6 6 6 6 6 4 5 6
6 6 6 4 3 4 4 4 5 5 4 1 5 5 5 5 4 5 6 9 2 3 3 3 3 3 7 6 9 7 4 6 9 4 4 5 6 6 6 7 7 8 9
10 2 3 5 8 9 4 6 3 4 3 5 1 1 3 5 3 6 9 7 7 3 5 2 5 5 4 4 8 5 7 3 4 4 4 4 2 2 4 6 6 8 7
8 3 3 3 4 4 7 6 4 6 4 7 3 2 4 4 5 2 8 9 3 4 6 7 10 6 5 4 7 8 8 8 8 8 5 7 7 7 7 5 6 7 7
10 3 4 6 8 4 4 6 6 5 6 5 7 3 4 4 5 5 1 7 7 8 3 5 6 5 4 4 4 5 5 6 9 9 9 4 4 7 7 2 3 6 7
7 6 4 6 6 8 1 4 6 4 7 8 4 6 8 7 7 8 6 5 5 8 6 5 7 4 3 6 7 3 9 7 9 5 5 4 4 5 4 4 3 4 5
8 8 6 8 7 5 7 6 6 6 6 5 3 3 3 4 8 12 10 10 9 6 7 2 5 7 9 7 9 10 9 6 6 7 5 4 3 2 2 8 7 8 9
9 10 7 7 9 6 6 3 10 4 6 4 3 3 2 2 4 5 4 8 12 10 7 7 7 8 7 8 4 9 7 3 5 6 5 5 5 5 5 1 5 5 6
8 8 8 8 8 6 8 6 8 6 4 7 7 4 4 3 6 6 3 5 6 6 8 7 8 10 7 7 6 3 4 3 5 4 6 6 6 5 5 3 3 4 5
10 8 8 5 8 6 9 4 10 8 5 7 7 3 1 7 9 6 4 3 7 6 7 8 8 6 6 5 3 4 4 2 3 5 6 5 5 5 5 6 5 4 5
11 10 8 10 6 6 7 9 6 4 9 8 8 10 9 2 5 4 5 6 11 4 8 9 9 7 6 4 4 4 4 4 3 7 5 5 5 5 4 6 5 3 4
8 9 9 9 8 6 5 6 11 9 7 9 11 12 14 11 10 8 5 4 9 8 10 9 6 6 4 4 4 4 4 4 5 4 5 5 5 5 6 6 6 2 4
7 8 9 8 10 5 5 12 10 8 6 12 5 7 9 7 7 6 5 8 9 8 7 6 5 5 4 4 4 3 2 5 4 6 6 5 5 5 6 6 4 1 1
10 12 10 8 7 8 9 7 6 7 11 8 9 4 11 9 9 10 10 11 10 7 5 4 5 4 4 5 3 3 4 5 5 5 5 4 5 5 7 5 5 6 5
7 6 11 7 12 9 9 6 11 4 11 8 10 1 7 6 6 7 5 8 5 6 5 4 5 6 6 4 4 5 4 4 4 4 5 5 4 5 6 4 6 5 5
9 10 8 8 8 10 8 13 3 12 11 6 10 4 4 6 7 7 6 5 5 5 5 4 5 6 5 3 3 3 5 5 4 4 5 6 5 6 4 5 5 5 5
7 10 11 9 9 11 8 15 6 8 14 10 11 5 9 8 8 9 7 5 4 5 4 4 5 6 5 3 3 5 5 4 3 4 5 6 6 5 5 5 6 5 6
10 11 11 10 11 10 9 4 10 14 11 12 10 4 11 6 8 8 9 7 6 6 6 5 6 7 4 4 4 5 6 3 2 5 6 6 6 5 5 7 5 7 5
12 10 14 11 9 12 15 11 8 14 5 11 14 10 10 3 3 8 13 7 7 8 9 7 6 7 9 9 8 4 9 8 1 3 5 7 7 7 7 7 7 7 7
9 11 12 13 11 8 12 9 8 9 12 5 13 12 6 8 12 6 5 1 8 13 10 8 7 10 9 8 10 6 10 9 5 3 4 6 7 7 7 7 8 6 7
Wind_Direction
310 0 343 356 348 339 6 337 348 2 7 348 330 359 19 36 29 8 14 43 61 59 42 42 55 49 16 335 22 13 51 71 76 136 148 115 152 295 147 216 200 258 189
296 356 352 360 332 336 359 355 353 30 356 314 22 359 350 37 23 351 7 38 35 35 50 51 56 40 78 339 79 6 37 41 11 58 60 135 189 202 245 235 261 246 206
312 21 7 12 11 12 22 0 2 59 15 325 17 24 2 13 17 15 35 4 63 25 37 46 36 22 42 47 42 16 40 25 59 114 205 164 138 223 236 229 236 230 289
335 12 1 339 59 36 31 49 49 52 43 22 17 13 358 337 30 11 39 50 63 75 69 84 52 55 58 31 75 82 50 251 108 343 126 209 230 211 322 194 250 213 257
323 18 11 327 47 44 39 24 22 64 55 66 57 8 342 59 32 4 344 51 57 70 66 80 67 49 29 20 5 18 8 353 354 353 322 91 42 141 359 300 313 308 171
3 333 304 48 348 49 359 84 58 1 19 68 56 64 44 60 25 5 351 352 35 49 23 17 116 157 160 304 302 271 295 329 341 343 359 346 358 349 348 341 334 339 336
320 285 8 359 338 344 349 350 2 16 34 13 52 43 64 56 32 3 338 316 257 147 97 44 354 90 277 12 239 268 244 231 239 308 316 335 341 340 334 322 331 305 280
288 301 355 333 335 11 311 356 326 344 343 355 63 45 63 79 39 347 329 277 13 21 52 43 27 354 58 357 327 305 238 195 213 221 298 335 351 340 332 306 287 283 258
284 335 65 5 350 339 12 337 289 307 304 230 79 67 31 99 102 351 342 312 288 260 255 122 17 351 38 14 311 300 340 24 141 161 214 229 230 268 299 301 346 317 336
277 284 32 209 303 333 332 318 317 305 220 282 203 207 109 278 137 26 345 317 300 349 308 98 60 41 33 7 336 350 339 6 325 326 251 231 224 214 229 263 335 330 330
255 250 254 305 323 313 346 326 286 285 328 316 298 245 245 248 150 167 322 309 348 328 350 121 95 80 42 331 311 0 335 312 292 262 256 286 199 188 207 192 29 316 337
256 256 262 276 284 312 209 310 280 254 258 251 229 258 246 192 199 186 207 246 317 304 310 52 102 128 235 281 295 311 285 277 275 302 301 321 336 327 16 25 345 290 290
262 279 267 274 275 272 306 275 264 217 242 272 280 284 286 211 161 173 204 216 227 252 294 42 142 215 250 242 251 257 273 272 338 313 328 323 334 335 270 238 234 222 254
253 264 271 269 257 282 289 345 299 308 294 262 287 338 312 230 230 180 211 215 223 222 242 228 218 242 264 284 219 220 245 339 324 299 317 309 301 281 278 358 307 312 301
260 261 268 258 251 262 297 302 284 289 331 330 332 329 311 277 69 81 43 338 355 9 322 280 239 237 243 215 235 294 289 277 305 318 304 302 297 307 301 338 277 294 308
257 247 268 291 263 265 274 254 250 263 250 194 175 238 346 100 137 135 143 290 290 306 286 267 269 271 278 278 291 298 294 282 330 320 286 292 306 311 325 313 282 305 313
253 259 249 250 287 285 274 278 282 256 227 254 231 202 207 148 163 197 243 270 265 253 252 258 259 271 272 281 279 289 303 337 342 266 315 299 299 304 275 290 303 293 323
261 245 258 248 260 235 279 272 276 281 279 207 215 221 217 211 208 219 240 266 258 212 248 261 259 261 257 271 285 300 315 315 288 303 296 295 296 301 299 299 298 24 343
257 262 247 248 259 257 270 279 277 271 314 295 185 188 211 216 215 208 187 243 270 277 236 268 273 268 274 275 280 297 335 289 328 304 288 290 292 293 295 297 327 219 192
271 251 248 254 261 256 241 255 308 269 269 275 300 263 159 165 204 214 207 220 234 264 278 283 273 274 273 273 299 283 259 246 253 250 273 293 280 285 289 320 312 318 289
295 278 291 244 266 257 267 216 246 295 273 263 317 233 123 218 286 286 222 234 253 241 254 270 279 253 232 224 228 246 260 273 273 274 276 274 278 285 290 313 299 296 299
322 313 292 275 243 261 265 277 166 270 272 244 268 170 169 226 251 259 247 238 257 251 234 238 254 265 252 260 296 304 271 273 272 276 289 288 286 284 302 295 300 305 308
307 303 300 292 266 263 239 252 207 264 274 263 267 239 185 250 275 265 242 223 230 244 260 233 243 268 265 191 201 250 281 293 312 314 298 291 292 301 308 315 299 300 300
281 277 285 290 294 279 251 218 292 247 258 268 260 272 277 242 260 282 273 277 252 229 229 228 236 259 271 230 223 227 227 197 320 305 291 294 292 274 267 265 288 289 291
333 337 313 287 283 283 272 244 211 261 216 264 260 236 267 292 192 240 252 269 265 255 242 228 227 236 224 235 252 232 115 103 321 8 285 272 274 283 279 278 281 286 283
326 316 313 304 287 294 274 250 263 281 259 243 272 265 237 276 241 257 292 6 275 271 254 234 230 219 242 228 224 147 143 134 161 192 281 272 267 265 262 270 277 276 273